Weather History for Abingdon, VA

Change the Weather History Date:

Monday, December 31, 2012

  Actual Average (KTRI) Record (KTRI)
Temperature  
Mean Temperature 30 °F 35 °F  
Max Temperature 39 °F 45 °F 74 °F (1951)
Min Temperature 21 °F 25 °F 5 °F (1983)
Degree Days  
Heating Degree Days 35 30  
Month to date heating degree days 844  
Since 1 July heating degree days 1729  
Cooling Degree Days 0 0  
Month to date cooling degree days 0  
Year to date cooling degree days 981  
Moisture  
Dew Point 26 °F    
Average Humidity 78    
Maximum Humidity 96    
Minimum Humidity 59    
Precipitation  
Precipitation 0.00 in 0.10 in 1.51 in (1975)
Month to date precipitation 3.37  
Year to date precipitation 41.01  
Snow  
Snow 0.00 in 0.10 in - ()
Month to date snowfall 2.4  
Since 1 July snowfall 2.7  
Snow Depth -    
Sea Level Pressure  
Sea Level Pressure 30.23 in    
Wind  
Wind Speed 1 mph (West)    
Max Wind Speed 8 mph    
Max Gust Speed -    
Visibility 10 miles    
Events      
T = Trace of Precipitation, MM = Missing Value Source: NWS Daily Summary

Daily Weather History Graph

Daily Weather History Graph

Search for Another Location

Airport:

Trip Planner

Search our weather history database for the weather conditions in past years. The results will help you decide how hot, cold, wet, or windy it might be!

Date:

Astronomy

Dec. 31, 2012 Rise Set
Actual Time 7:40 AM EST 5:22 PM EST
Civil Twilight 7:11 AM EST 5:51 PM EST
Nautical Twilight 6:39 AM EST 6:23 PM EST
Astronomical Twilight 6:07 AM EST 6:55 PM EST
Moon 8:46 PM EST (12/31) 9:26 AM EST (12/31)
Length of Visible Light 10h 39m
Length of Day
9h 42m
Waning Gibbous, 90% of the Moon is Illuminated
Dec 31
Waning Gibbous
Jan 4
Last Quarter
Jan 11
New
Jan 18
First Quarter
Jan 26
Full

Hourly Weather History & Observations

Time (EST) Temp. Windchill Dew Point Humidity Pressure Visibility Wind Dir Wind Speed Gust Speed Precip Events Conditions
12:15 AM 24.6 °F - 22.6 °F 92% 30.34 in 10.0 mi Calm Calm - N/A   Clear
12:35 AM 24.3 °F - 22.8 °F 94% 30.34 in 7.0 mi Calm Calm - N/A   Clear
12:55 AM 24.6 °F - 22.8 °F 93% 30.32 in 10.0 mi Calm Calm - N/A   Clear
1:15 AM 23.9 °F - 22.1 °F 93% 30.32 in 7.0 mi Calm Calm - N/A   Clear
1:35 AM 23.9 °F - 22.1 °F 93% 30.31 in 10.0 mi Calm Calm - N/A   Clear
1:55 AM 23.7 °F - 22.3 °F 94% 30.31 in 10.0 mi Calm Calm - N/A   Clear
2:15 AM 23.4 °F - 22.5 °F 96% 30.31 in 7.0 mi Calm Calm - N/A   Clear
2:35 AM 21.7 °F 14.3 °F 20.5 °F 95% 30.31 in 7.0 mi ESE 5.8 mph - N/A   Clear
2:55 AM 22.8 °F - 21.7 °F 96% 30.32 in 7.0 mi Calm Calm - N/A   Clear
3:15 AM 23.7 °F - 22.1 °F 94% 30.32 in 10.0 mi Calm Calm - N/A   Clear
3:35 AM 23.7 °F - 22.1 °F 94% 30.31 in 10.0 mi Calm Calm - N/A   Clear
4:15 AM 24.8 °F - 23.2 °F 94% 30.30 in 10.0 mi Calm Calm - N/A   Clear
4:35 AM 24.6 °F - 22.8 °F 93% 30.30 in 10.0 mi Calm Calm - N/A   Clear
5:15 AM 24.6 °F - 22.8 °F 93% 30.29 in 10.0 mi Calm Calm - N/A   Clear
5:35 AM 24.6 °F - 23.0 °F 94% 30.28 in 10.0 mi Calm Calm - N/A   Clear
5:55 AM 25.7 °F - 23.9 °F 93% 30.28 in 10.0 mi Calm Calm - N/A   Clear
6:15 AM 26.2 °F - 23.9 °F 91% 30.30 in 10.0 mi Calm Calm - N/A   Clear
6:35 AM 26.6 °F - 24.3 °F 91% 30.30 in 10.0 mi Calm Calm - N/A   Clear
6:55 AM 25.7 °F - 23.9 °F 93% 30.30 in 10.0 mi Calm Calm - N/A   Clear
7:15 AM 25.7 °F - 24.3 °F 94% 30.30 in 10.0 mi Calm Calm - N/A   Clear
8:15 AM 25.7 °F - 24.8 °F 96% 30.31 in 7.0 mi Calm Calm - N/A   Clear
8:35 AM 26.6 °F - 25.2 °F 94% 30.30 in 10.0 mi Calm Calm - N/A   Clear
8:55 AM 27.5 °F - 25.7 °F 93% 30.30 in 10.0 mi Calm Calm - N/A   Clear
9:15 AM 28.4 °F - 26.4 °F 92% 30.30 in 10.0 mi Calm Calm - N/A   Clear
9:35 AM 29.8 °F - 27.0 °F 89% 30.29 in 10.0 mi Calm Calm - N/A   Clear
9:55 AM 30.6 °F - 26.6 °F 85% 30.28 in 10.0 mi Calm Calm - N/A   Mostly Cloudy
10:15 AM 30.9 °F - 26.8 °F 85% 30.30 in 10.0 mi Calm Calm - N/A   Overcast
10:35 AM 31.8 °F - 28.8 °F 88% 30.31 in 10.0 mi Calm Calm - N/A   Mostly Cloudy
11:15 AM 34.7 °F - 27.5 °F 75% 30.30 in 10.0 mi Calm Calm - N/A   Mostly Cloudy
11:35 AM 35.2 °F - 27.5 °F 73% 30.28 in 10.0 mi Calm Calm - N/A   Scattered Clouds
11:55 AM 36.1 °F - 26.8 °F 69% 30.26 in 10.0 mi Calm Calm - N/A   Scattered Clouds
12:15 PM 36.5 °F - 28.2 °F 72% 30.25 in 10.0 mi Calm Calm - N/A   Clear
12:35 PM 37.9 °F - 27.7 °F 67% 30.24 in 10.0 mi Calm Calm - N/A   Clear
12:55 PM 37.9 °F 34.4 °F 27.1 °F 65% 30.23 in 10.0 mi West 4.6 mph - N/A   Scattered Clouds
1:15 PM 39.2 °F 35.0 °F 27.1 °F 62% 30.21 in 10.0 mi West 5.8 mph - N/A   Scattered Clouds
1:35 PM 38.7 °F 34.3 °F 25.5 °F 59% 30.19 in 10.0 mi WSW 5.8 mph - N/A   Scattered Clouds
1:55 PM 38.8 °F 33.2 °F 25.7 °F 59% 30.20 in 10.0 mi West 8.1 mph - N/A   Mostly Cloudy
2:35 PM 38.8 °F 35.4 °F 26.1 °F 60% 30.19 in 10.0 mi West 4.6 mph - N/A   Overcast
2:55 PM 38.5 °F 34.1 °F 26.4 °F 62% 30.19 in 10.0 mi West 5.8 mph - N/A   Overcast
3:15 PM 38.3 °F 34.8 °F 25.9 °F 61% 30.20 in 10.0 mi West 4.6 mph - N/A   Overcast
3:35 PM 37.9 °F 33.5 °F 26.4 °F 63% 30.19 in 10.0 mi WSW 5.8 mph - N/A   Overcast
3:55 PM 37.9 °F 32.1 °F 26.8 °F 64% 30.17 in 10.0 mi SW 8.1 mph - N/A   Overcast
4:15 PM 37.9 °F 33.5 °F 26.4 °F 63% 30.16 in 10.0 mi WSW 5.8 mph - N/A   Overcast
4:35 PM 37.9 °F 35.5 °F 26.1 °F 62% 30.17 in 10.0 mi West 3.5 mph - N/A   Overcast
5:15 PM 37.4 °F 32.8 °F 26.6 °F 65% 30.18 in 10.0 mi West 5.8 mph - N/A   Overcast
5:35 PM 37.4 °F 33.8 °F 26.2 °F 64% 30.19 in 10.0 mi WNW 4.6 mph - N/A   Overcast
5:55 PM 37.4 °F 33.8 °F 26.8 °F 66% 30.18 in 10.0 mi West 4.6 mph - N/A   Overcast
6:15 PM 37.4 °F 34.9 °F 26.8 °F 66% 30.18 in 10.0 mi West 3.5 mph - N/A   Overcast
6:35 PM 37.2 °F 34.7 °F 27.3 °F 67% 30.18 in 10.0 mi West 3.5 mph - N/A   Overcast
6:55 PM 37.4 °F 32.8 °F 27.7 °F 68% 30.15 in 10.0 mi SW 5.8 mph - N/A   Overcast
7:15 PM 37.4 °F - 27.7 °F 68% 30.15 in 10.0 mi Calm Calm - N/A   Overcast
7:35 PM 37.4 °F 34.9 °F 27.5 °F 67% 30.14 in 10.0 mi WNW 3.5 mph - N/A   Overcast
7:55 PM 37.6 °F 35.1 °F 27.1 °F 66% 30.15 in 10.0 mi NW 3.5 mph - N/A   Overcast
8:15 PM 37.4 °F 34.9 °F 27.5 °F 67% 30.14 in 10.0 mi NW 3.5 mph - N/A   Overcast
8:35 PM 37.4 °F - 27.5 °F 67% 30.13 in 10.0 mi Calm Calm - N/A   Mostly Cloudy
8:55 PM 37.4 °F - 27.3 °F 67% 30.13 in 10.0 mi Calm Calm - N/A   Scattered Clouds
9:15 PM 36.5 °F - 29.5 °F 76% 30.11 in 10.0 mi Calm Calm - N/A   Scattered Clouds
9:35 PM 36.5 °F - 29.7 °F 76% 30.10 in 10.0 mi Calm Calm - N/A   Mostly Cloudy
9:55 PM 36.3 °F - 29.7 °F 77% 30.11 in 10.0 mi Calm Calm - N/A   Overcast
10:15 PM 37.6 °F - 27.1 °F 66% 30.11 in 10.0 mi Calm Calm - N/A   Overcast
10:35 PM 37.0 °F - 28.0 °F 70% 30.11 in 10.0 mi Calm Calm - N/A   Overcast
10:55 PM 36.9 °F - 29.3 °F 74% 30.10 in 10.0 mi Calm Calm - N/A   Overcast
11:15 PM 36.7 °F - 30.0 °F 77% 30.11 in 10.0 mi Calm Calm - N/A   Overcast
11:35 PM 36.9 °F - 30.6 °F 78% 30.10 in 10.0 mi Calm Calm - N/A   Overcast
11:55 PM 37.0 °F - 31.1 °F 79% 30.10 in 10.0 mi Calm Calm - N/A   Light Drizzle